Regional Weather Roundup
Issued by NWS

Home | Current Version | Previous Version | Text Only | Print | Product List | Glossary Off
Versions: 1 2 3 4 5 6 7 8 9 10 11 12 13 14 15 16 17 18 19 20 21 22 23 24 25 26 27 28 29 30 31 32 33 34 35 36 37 38 39 40 41 42 43 44 45 46 47 48 49 50

000
ASUS44 KMEG 081800
RWRTN
TENNESSEE HOURLY STATE WEATHER ROUNDUP
NATIONAL WEATHER SERVICE MEMPHIS TN
1200 PM CST MON FEB 08 2016

TNZ002-004-019-021-049-052-054-088>092-081900-
WEST TENNESSEE

CITY           SKY/WX    TMP DP  RH WIND       PRES   REMARKS
MEMPHIS INTL   CLOUDY    45  22  40 NW14G26   29.95F
NWS MEMPHIS      N/A     42 N/A N/A MISG        N/A
JACKSON        CLOUDY    41  20  43 NW25G33   29.90S
DYERSBURG      CLOUDY    39  19  45 NW17G28   29.93S WCI  30
UNION CITY     CLOUDY    36  19  51 NW20      29.87S WCI  25
PARIS          CLOUDY    34  23  64 NW15      29.85S WCI  24
$$

TNZ008-025-027-028-033-062-065-066-081900-
NORTH MIDDLE TENNESSEE

CITY           SKY/WX    TMP DP  RH WIND       PRES   REMARKS
NASHVILLE      CLOUDY    42  23  46 W8        29.81F
CLARKSVILLE    CLOUDY    41  25  53 W12       29.79F
CROSSVILLE     MOSUNNY   42  20  41 W14G24    29.70F
$$

TNZ061-075-076-078-094-096-097-081900-
SOUTH MIDDLE TENNESSEE

CITY           SKY/WX    TMP DP  RH WIND       PRES   REMARKS
TULLAHOMA      CLOUDY    39  19  45 W18       29.79F WCI  30
WINCHESTER     CLOUDY    41  25  52 NW12      29.80F
MCMINNVILLE    CLOUDY    41  23  48 W13       29.77F
COLUMBIA       CLOUDY    41  25  52 W7        29.81F
SHELBYVILLE    CLOUDY    43  27  52 W14       29.81F
$$

TNZ017-018-042-046-047-081900-
NORTHEAST TENNESSEE

CITY           SKY/WX    TMP DP  RH WIND       PRES   REMARKS
TRI CITIES     PTSUNNY   43  33  68 S10       29.66F
$$

TNZ012-013-036-069-073-074-081900-
CENTRAL EAST TENNESSEE

CITY           SKY/WX    TMP DP  RH WIND       PRES   REMARKS
KNOXVILLE      LGT RAIN  43  30  60 W13G24    29.70F
OAK RIDGE      CLOUDY    46  27  47 W9G17     29.70F
GATLINBURG     MOCLDY    48  21  34 W13       29.67F
$$

TNZ083-085-099-081900-
SOUTHEAST TENNESSEE

CITY           SKY/WX    TMP DP  RH WIND       PRES   REMARKS
CHATTANOOGA    PTSUNNY   48  18  30 W18G28    29.75F
$$

SKY/WX REPORTED AS FAIR MEANS FEW OR NO CLOUDS BELOW
12 THOUSAND FEET.




USA.gov is the U.S. government's official web portal to all federal, state and local government web resources and services.